Tiempo cada hora Bárna

Hoy, 14 Mayo, Viernes

Tiempo Temperatura Precipitaciones Viento Presión Humedad
00:00 +9°C° 0.1 mm 3 mps 713 mmHg 96%
01:00 +9°C° 0 mm 3 mps 713 mmHg 96%
02:00 +8°C° 0 mm 3 mps 713 mmHg 95%
03:00 +8°C° 0 mm 3 mps 713 mmHg 95%
04:00 +8°C° 0 mm 3 mps 713 mmHg 95%
05:00 +8°C° 0.1 mm 3 mps 713 mmHg 95%
06:00 +7°C° 0.1 mm 4 mps 713 mmHg 94%
07:00 +7°C° 0.1 mm 4 mps 713 mmHg 94%
08:00 +7°C° 0.3 mm 4 mps 714 mmHg 94%
09:00 +7°C° 0.3 mm 4 mps 714 mmHg 94%
10:00 +7°C° 0.3 mm 4 mps 714 mmHg 95%
11:00 +7°C° 0.5 mm 4 mps 715 mmHg 95%
12:00 +7°C° 0.5 mm 4 mps 715 mmHg 94%
13:00 +8°C° 0.5 mm 4 mps 715 mmHg 94%
14:00 +8°C° 0.1 mm 4 mps 715 mmHg 94%
15:00 +9°C° 0.1 mm 3 mps 716 mmHg 93%
16:00 +9°C° 0.1 mm 3 mps 716 mmHg 93%
17:00 +9°C° 0 mm 3 mps 716 mmHg 93%
18:00 +9°C° 0 mm 2 mps 716 mmHg 94%
19:00 +9°C° 0 mm 2 mps 716 mmHg 95%
20:00 +9°C° 0 mm 1 mps 716 mmHg 95%
21:00 +9°C° 0 mm 1 mps 717 mmHg 96%
22:00 +9°C° 0 mm 1 mps 717 mmHg 96%
23:00 +8°C° 0 mm 1 mps 717 mmHg 96%

Mañana, 15 Mayo, Sábado

Tiempo Temperatura Precipitaciones Viento Presión Humedad
00:00 +8°C° 0 mm 1 mps 717 mmHg 96%
01:00 +8°C° 0 mm 1 mps 717 mmHg 96%
02:00 +7°C° 0 mm 1 mps 717 mmHg 96%
03:00 +7°C° 0 mm 1 mps 718 mmHg 96%
04:00 +7°C° 0 mm 1 mps 718 mmHg 96%
05:00 +7°C° 0 mm 0 mps 718 mmHg 92%
06:00 +9°C° 0 mm 0 mps 718 mmHg 88%
07:00 +10°C° 0 mm 0 mps 719 mmHg 83%
08:00 +12°C° 0 mm 0 mps 719 mmHg 76%
09:00 +14°C° 0 mm 0 mps 719 mmHg 68%
10:00 +16°C° 0 mm 0 mps 719 mmHg 61%
11:00 +18°C° 0.2 mm 1 mps 719 mmHg 60%
12:00 +18°C° 0.2 mm 1 mps 718 mmHg 59%
13:00 +19°C° 0.2 mm 1 mps 718 mmHg 59%
14:00 +17°C° 0.4 mm 2 mps 718 mmHg 63%
15:00 +17°C° 0.4 mm 2 mps 718 mmHg 68%
16:00 +17°C° 0.4 mm 2 mps 718 mmHg 72%
17:00 +15°C° 0.3 mm 1 mps 717 mmHg 78%
18:00 +14°C° 0.3 mm 1 mps 717 mmHg 83%
19:00 +12°C° 0.3 mm 1 mps 717 mmHg 89%
20:00 +12°C° 0.3 mm 1 mps 717 mmHg 91%
21:00 +11°C° 0.3 mm 1 mps 717 mmHg 92%
22:00 +10°C° 0.3 mm 1 mps 716 mmHg 94%
23:00 +10°C° 0.4 mm 1 mps 716 mmHg 95%

Pasado mañana, 16 Mayo, Domingo

Tiempo Temperatura Precipitaciones Viento Presión Humedad
00:00 +10°C° 0.4 mm 1 mps 716 mmHg 96%
01:00 +10°C° 0.4 mm 1 mps 716 mmHg 97%
02:00 +10°C° 0.6 mm 1 mps 716 mmHg 97%
03:00 +10°C° 0.6 mm 1 mps 716 mmHg 98%
04:00 +10°C° 0.6 mm 1 mps 716 mmHg 98%
05:00 +10°C° 1 mm 1 mps 716 mmHg 98%
06:00 +11°C° 1 mm 1 mps 716 mmHg 98%
07:00 +11°C° 1 mm 1 mps 716 mmHg 98%
08:00 +10°C° 0.7 mm 2 mps 716 mmHg 96%
09:00 +12°C° 0.7 mm 2 mps 716 mmHg 93%
10:00 +12°C° 0.7 mm 3 mps 716 mmHg 91%
11:00 +11°C° 0.3 mm 3 mps 716 mmHg 90%
12:00 +11°C° 0.3 mm 3 mps 716 mmHg 90%
13:00 +10°C° 0.3 mm 3 mps 716 mmHg 89%
14:00 +11°C° 0 mm 4 mps 716 mmHg 84%
15:00 +11°C° 0 mm 4 mps 716 mmHg 78%
16:00 +12°C° 0 mm 4 mps 716 mmHg 72%
17:00 +11°C° 0 mm 3 mps 716 mmHg 75%
18:00 +10°C° 0 mm 3 mps 716 mmHg 79%
19:00 +9°C° 0 mm 2 mps 716 mmHg 82%
20:00 +8°C° 0 mm 2 mps 717 mmHg 85%
21:00 +9°C° 0 mm 1 mps 717 mmHg 88%
22:00 +8°C° 0 mm 1 mps 717 mmHg 90%
23:00 +8°C° 0 mm 1 mps 717 mmHg 90%

17 Mayo, Lunes

Tiempo Temperatura Precipitaciones Viento Presión Humedad
00:00 +6°C° 0 mm 0 mps 717 mmHg 91%
01:00 +6°C° 0 mm 0 mps 717 mmHg 91%
02:00 +6°C° 0 mm 0 mps 717 mmHg 91%
03:00 +6°C° 0 mm 0 mps 717 mmHg 91%
04:00 +6°C° 0 mm 0 mps 717 mmHg 91%
05:00 +8°C° 0 mm 0 mps 718 mmHg 86%
06:00 +10°C° 0 mm 1 mps 718 mmHg 81%
07:00 +12°C° 0 mm 1 mps 718 mmHg 76%
08:00 +13°C° 0.1 mm 1 mps 718 mmHg 75%
09:00 +14°C° 0.1 mm 2 mps 718 mmHg 73%
10:00 +14°C° 0.1 mm 2 mps 718 mmHg 72%
11:00 +14°C° 0.4 mm 2 mps 718 mmHg 79%
12:00 +13°C° 0.4 mm 1 mps 718 mmHg 85%
13:00 +12°C° 0.4 mm 1 mps 718 mmHg 92%
14:00 +12°C° 0.4 mm 1 mps 718 mmHg 93%
15:00 +11°C° 0.4 mm 1 mps 718 mmHg 94%
16:00 +10°C° 0.4 mm 0 mps 718 mmHg 96%
17:00 +10°C° 0.2 mm 0 mps 718 mmHg 96%
18:00 +10°C° 0.2 mm 0 mps 718 mmHg 96%
19:00 +10°C° 0.2 mm 0 mps 718 mmHg 96%
20:00 +9°C° 0.2 mm 0 mps 718 mmHg 96%
21:00 +9°C° 0.2 mm 0 mps 718 mmHg 97%
22:00 +9°C° 0.2 mm 0 mps 718 mmHg 97%
23:00 +9°C° 0.8 mm 0 mps 718 mmHg 97%

18 Mayo, Martes

Tiempo Temperatura Precipitaciones Viento Presión Humedad
00:00 +9°C° 0.8 mm 0 mps 717 mmHg 98%
01:00 +9°C° 0.8 mm 0 mps 717 mmHg 98%
02:00 +9°C° 0.4 mm 0 mps 717 mmHg 98%
03:00 +9°C° 0.4 mm 0 mps 717 mmHg 98%
04:00 +9°C° 0.4 mm 0 mps 716 mmHg 98%
05:00 +10°C° 0.2 mm 1 mps 716 mmHg 97%
06:00 +10°C° 0.2 mm 1 mps 716 mmHg 97%
07:00 +10°C° 0.2 mm 1 mps 717 mmHg 96%
08:00 +9°C° 0.3 mm 2 mps 717 mmHg 96%
09:00 +8°C° 0.3 mm 2 mps 717 mmHg 95%
10:00 +8°C° 0.3 mm 2 mps 717 mmHg 94%
11:00 +8°C° 0.3 mm 2 mps 717 mmHg 93%
12:00 +8°C° 0.3 mm 2 mps 717 mmHg 92%
13:00 +8°C° 0.3 mm 2 mps 717 mmHg 91%
14:00 +9°C° 0.3 mm 2 mps 717 mmHg 89%
15:00 +10°C° 0.3 mm 1 mps 717 mmHg 87%
16:00 +11°C° 0.3 mm 1 mps 717 mmHg 85%
17:00 +10°C° 0.1 mm 1 mps 717 mmHg 87%
18:00 +10°C° 0.1 mm 1 mps 717 mmHg 90%
19:00 +8°C° 0.1 mm 2 mps 717 mmHg 92%
20:00 +8°C° 0 mm 2 mps 718 mmHg 92%
21:00 +7°C° 0 mm 3 mps 718 mmHg 92%
22:00 +7°C° 0 mm 3 mps 718 mmHg 92%
23:00 +7°C° 0 mm 3 mps 718 mmHg 93%

19 Mayo, Miércoles

Tiempo Temperatura Precipitaciones Viento Presión Humedad
00:00 +5°C° 0 mm 3 mps 718 mmHg 93%
01:00 +5°C° 0 mm 3 mps 719 mmHg 93%
02:00 +4°C° 0 mm 3 mps 719 mmHg 93%
03:00 +4°C° 0 mm 3 mps 719 mmHg 94%
04:00 +4°C° 0 mm 3 mps 719 mmHg 94%
05:00 +5°C° 0 mm 3 mps 719 mmHg 89%
06:00 +7°C° 0 mm 4 mps 720 mmHg 84%
07:00 +8°C° 0 mm 4 mps 720 mmHg 79%
08:00 +10°C° 0 mm 5 mps 720 mmHg 71%
09:00 +13°C° 0 mm 5 mps 721 mmHg 62%
10:00 +14°C° 0 mm 6 mps 721 mmHg 53%
11:00 +14°C° 0 mm 6 mps 721 mmHg 53%
12:00 +15°C° 0 mm 6 mps 721 mmHg 54%
13:00 +15°C° 0 mm 7 mps 721 mmHg 54%
14:00 +14°C° 0.1 mm 6 mps 721 mmHg 57%
15:00 +14°C° 0.1 mm 6 mps 721 mmHg 61%
16:00 +14°C° 0.1 mm 5 mps 721 mmHg 64%
17:00 +12°C° 0 mm 4 mps 720 mmHg 69%
18:00 +11°C° 0 mm 3 mps 720 mmHg 75%
19:00 +9°C° 0 mm 2 mps 720 mmHg 80%
20:00 +9°C° 0 mm 2 mps 721 mmHg 82%
21:00 +8°C° 0 mm 2 mps 721 mmHg 84%
22:00 +8°C° 0 mm 2 mps 721 mmHg 86%
23:00 +7°C° 0 mm 2 mps 721 mmHg 88%
Mostrar más

Necesitamos Su Consentimiento

Meteoprog y nuestros Proveedores de Servicios pueden almacenar y acceder a sus datos personales como cookies, identificadores de dispositivo u otras tecnologías similares de su dispositivo y procesar dichos datos para personalizar contenido y anuncios, además de ofrecer funciones de redes sociales y analizar el tráfico.

  • Almacenar y/o acceder a información en su dispositivo

    Se puede almacenar o acceder a cookies, identificadores de dispositivo u otra información de su dispositivo para los fines anteriormente indicados.

  • Anuncios y contenido personalizados, medición de anuncios y contenido, percepciones del público, y desarrollo de productos

    Los anuncios y el contenido pueden personalizarse en base a su perfil. Se pueden añadir más datos para personalizar mejor los anuncios y contenidos. Se puede medir el rendimiento de los anuncios y contenidos. Se puede obtener la percepción sobre el público que ha visto los anuncios y contenidos. Dichos datos pueden usarse para desarrollar o mejorar la experiencia del usuario, sistemas y software.

Al hacer clic en ‘Estoy De Acuerdo’ usted permitirá el uso de las cookies, identificadores de dispositivo, balizas web u otras tecnologías similares indicadas. Su configuración puede cambiarse desde el navegador de su dispositivo.

Para ciertos fines, los intereses legítimos pueden ser considerados por encima del consentimiento. Puede leer más sobre ello en nuestra Política de Privacidad y Cookies.